KLM63U EHAM-LGAV

Flight info

Callsign KLM63U
Flight time 2h 44m
Altitude 35000
Route EDUPO Z739 MISGO DCT DOJOH DCT DODEN DCT NEGIX DCT DINKU M867 XERUM DCT BAVAX DCT RADIZ DCT LUMUS DCT GORPA DCT ELTIB DCT PINDO DCT PIKOS UL607 XORKI
Aircraft B738/M-SDE2E3FGHIRWXY/LB1

Departure

Time 2026-05-04 19:48
Airport Amsterdam Airport Schiphol (EHAM)

Arrival

Time 2026-05-04 22:32
Airport Athens Eleftherios Venizelos International Airport (LGAV)
Time Latitude Longitude Altitude Speed Heading
2026-05-04 18:59 52.30467 4.76777 -2 ft 0 kts 322°
2026-05-04 19:36 52.30457 4.76790 -2 ft 3 kts 321°
2026-05-04 19:36 52.30442 4.76811 -2 ft 3 kts 313°
2026-05-04 19:36 52.30430 4.76836 -2 ft 3 kts 288°
2026-05-04 19:37 52.30428 4.76859 -2 ft 1 kts 249°
2026-05-04 19:37 52.30429 4.76863 -2 ft 1 kts 248°
2026-05-04 19:41 52.30427 4.76856 -2 ft 3 kts 243°
2026-05-04 19:41 52.30402 4.76791 -2 ft 11 kts 236°
2026-05-04 19:41 52.30344 4.76650 -2 ft 19 kts 238°
2026-05-04 19:41 52.30266 4.76448 -2 ft 22 kts 238°
2026-05-04 19:42 52.30188 4.76240 -2 ft 21 kts 239°
2026-05-04 19:42 52.30111 4.76040 -2 ft 21 kts 238°
2026-05-04 19:42 52.30033 4.75845 -2 ft 21 kts 238°
2026-05-04 19:42 52.29959 4.75647 -2 ft 20 kts 237°
2026-05-04 19:43 52.29884 4.75451 -2 ft 21 kts 238°
2026-05-04 19:43 52.29834 4.75238 -2 ft 20 kts 279°
2026-05-04 19:43 52.29916 4.75059 -2 ft 20 kts 310°
2026-05-04 19:43 52.30005 4.74893 -2 ft 20 kts 312°
2026-05-04 19:44 52.30102 4.74712 3 ft 22 kts 311°
2026-05-04 19:44 52.30205 4.74522 9 ft 24 kts 311°
2026-05-04 19:44 52.30315 4.74315 1 ft 26 kts 310°
2026-05-04 19:44 52.30364 4.74109 -2 ft 16 kts 243°
2026-05-04 19:45 52.30316 4.74027 -2 ft 9 kts 219°
2026-05-04 19:45 52.30266 4.73968 -2 ft 9 kts 216°
2026-05-04 19:45 52.30209 4.73902 -2 ft 11 kts 219°
2026-05-04 19:45 52.30188 4.73783 -3 ft 8 kts 267°
2026-05-04 19:46 52.30218 4.73738 -4 ft 4 kts
2026-05-04 19:46 52.30240 4.73742 -4 ft 3 kts
2026-05-04 19:46 52.30251 4.73743 -4 ft 0 kts
2026-05-04 19:47 52.30258 4.73743 -4 ft 4 kts
2026-05-04 19:47 52.30471 4.73762 -4 ft 65 kts
2026-05-04 19:47 52.31150 4.73824 -2 ft 128 kts
2026-05-04 19:47 52.32195 4.73942 184 ft 162 kts
2026-05-04 19:48 52.33335 4.74060 923 ft 163 kts
2026-05-04 19:48 52.34478 4.74545 1382 ft 188 kts 26°
2026-05-04 19:48 52.35714 4.75545 1610 ft 211 kts 24°
2026-05-04 19:48 52.37117 4.76518 2050 ft 224 kts 22°
2026-05-04 19:49 52.38494 4.77927 2336 ft 246 kts 45°
2026-05-04 19:49 52.39550 4.80183 2977 ft 256 kts 68°
2026-05-04 19:49 52.39728 4.83085 3744 ft 262 kts 100°
2026-05-04 19:49 52.39185 4.85942 4576 ft 266 kts 110°
2026-05-04 19:50 52.38486 4.88787 5350 ft 270 kts 112°
2026-05-04 19:50 52.37766 4.91641 6166 ft 273 kts 112°
2026-05-04 19:50 52.37048 4.94510 6894 ft 278 kts 112°
2026-05-04 19:50 52.36315 4.97493 7658 ft 281 kts 112°
2026-05-04 19:51 52.35589 5.00479 8415 ft 284 kts 112°
2026-05-04 19:51 52.34865 5.03467 9168 ft 288 kts 112°
2026-05-04 19:51 52.34123 5.06532 9888 ft 292 kts 112°
2026-05-04 19:51 52.33279 5.09590 10418 ft 302 kts 123°
2026-05-04 19:52 52.31909 5.12349 10593 ft 324 kts 134°
2026-05-04 19:52 52.30310 5.15124 10763 ft 346 kts 134°
2026-05-04 19:52 52.28623 5.18083 10921 ft 366 kts 133°
2026-05-04 19:52 52.26868 5.21229 11177 ft 381 kts 133°
2026-05-04 19:53 52.25073 5.24478 11726 ft 387 kts 132°
2026-05-04 19:53 52.23356 5.27875 12372 ft 390 kts 127°
2026-05-04 19:53 52.21774 5.31491 12997 ft 394 kts 125°
2026-05-04 19:53 52.20209 5.35179 13621 ft 397 kts 125°
2026-05-04 19:54 52.18672 5.38805 14174 ft 401 kts 125°
2026-05-04 19:54 52.17067 5.42555 14713 ft 405 kts 125°
2026-05-04 19:54 52.15326 5.46586 15306 ft 408 kts 125°
2026-05-04 19:55 52.13681 5.50365 15850 ft 412 kts 126°
2026-05-04 19:55 52.12013 5.54183 16383 ft 415 kts 126°
2026-05-04 19:55 52.10332 5.58021 16922 ft 418 kts 126°
2026-05-04 19:55 52.08638 5.61886 17406 ft 422 kts 126°
2026-05-04 19:56 52.06923 5.65791 17963 ft 425 kts 125°
2026-05-04 19:56 52.05155 5.69587 18416 ft 429 kts 129°
2026-05-04 19:56 52.03180 5.73296 18970 ft 428 kts 132°
2026-05-04 19:56 52.01190 5.76885 19565 ft 427 kts 132°
2026-05-04 19:57 51.99196 5.80455 20062 ft 428 kts 133°
2026-05-04 19:57 51.97184 5.84039 20506 ft 431 kts 133°
2026-05-04 19:57 51.95184 5.87593 20946 ft 433 kts 133°
2026-05-04 19:57 51.93154 5.91199 21391 ft 434 kts 133°
2026-05-04 19:58 51.91113 5.94819 21837 ft 436 kts 133°
2026-05-04 19:58 51.89063 5.98452 22276 ft 437 kts 133°
2026-05-04 19:58 51.87002 6.02104 22679 ft 440 kts 134°
2026-05-04 19:58 51.84931 6.05766 23059 ft 442 kts 134°
2026-05-04 19:59 51.82856 6.09431 23416 ft 445 kts 134°
2026-05-04 19:59 51.80764 6.13122 23733 ft 447 kts 134°
2026-05-04 19:59 51.78649 6.16846 24034 ft 449 kts 134°
2026-05-04 19:59 51.76532 6.20570 24337 ft 451 kts 135°
2026-05-04 20:00 51.74405 6.24305 24614 ft 453 kts 135°
2026-05-04 20:00 51.72267 6.28055 24873 ft 455 kts 135°
2026-05-04 20:00 51.70116 6.31820 25124 ft 457 kts 135°
2026-05-04 20:00 51.67927 6.35648 25393 ft 459 kts 136°
2026-05-04 20:01 51.65757 6.39436 25659 ft 460 kts 136°
2026-05-04 20:01 51.63581 6.43229 25920 ft 462 kts 136°
2026-05-04 20:01 51.61427 6.46976 26155 ft 464 kts 136°
2026-05-04 20:01 51.59202 6.50842 26409 ft 465 kts 136°
2026-05-04 20:02 51.57032 6.54608 26641 ft 466 kts 137°
2026-05-04 20:02 51.54827 6.58427 26923 ft 467 kts 137°
2026-05-04 20:02 51.52621 6.62245 27291 ft 465 kts 137°
2026-05-04 20:02 51.50425 6.66041 27671 ft 463 kts 137°
2026-05-04 20:03 51.48229 6.69829 28031 ft 462 kts 137°
2026-05-04 20:03 51.46038 6.73603 28372 ft 461 kts 138°
2026-05-04 20:03 51.43854 6.77358 28708 ft 461 kts 138°
2026-05-04 20:03 51.41673 6.81101 29082 ft 459 kts 138°
2026-05-04 20:04 51.39500 6.84827 29459 ft 458 kts 139°
2026-05-04 20:04 51.37322 6.88556 29830 ft 456 kts 139°
2026-05-04 20:04 51.35158 6.92255 30171 ft 455 kts 139°
2026-05-04 20:04 51.32995 6.95945 30476 ft 454 kts 139°
2026-05-04 20:05 51.30838 6.99620 30746 ft 454 kts 139°
2026-05-04 20:05 51.28679 7.03293 31032 ft 453 kts 139°
2026-05-04 20:05 51.26525 7.06953 31361 ft 452 kts 139°
2026-05-04 20:05 51.24371 7.10606 31654 ft 451 kts 139°
2026-05-04 20:06 51.22221 7.14248 31922 ft 451 kts 139°
2026-05-04 20:06 51.20070 7.17886 32197 ft 451 kts 139°
2026-05-04 20:06 51.17921 7.21516 32473 ft 450 kts 139°
2026-05-04 20:06 51.15769 7.25145 32758 ft 449 kts 139°
2026-05-04 20:07 51.13619 7.28766 33006 ft 449 kts 139°
2026-05-04 20:07 51.11473 7.32374 33245 ft 449 kts 139°
2026-05-04 20:07 51.09320 7.35989 33510 ft 449 kts 140°
2026-05-04 20:07 51.07174 7.39588 33768 ft 449 kts 140°
2026-05-04 20:08 51.05025 7.43185 33987 ft 449 kts 140°
2026-05-04 20:08 51.02875 7.46780 34169 ft 449 kts 140°
2026-05-04 20:08 51.00718 7.50381 34324 ft 450 kts 139°
2026-05-04 20:08 50.98557 7.53984 34517 ft 450 kts 139°
2026-05-04 20:09 50.96400 7.57574 34708 ft 450 kts 139°
2026-05-04 20:09 50.94239 7.61167 34873 ft 450 kts 139°
2026-05-04 20:09 50.92075 7.64760 34990 ft 451 kts 139°
2026-05-04 20:10 50.87733 7.71949 34996 ft 456 kts 139°
2026-05-04 20:10 50.83318 7.79240 34997 ft 460 kts 139°
2026-05-04 20:11 50.78842 7.86612 34994 ft 462 kts 139°
2026-05-04 20:11 50.74434 7.93858 34981 ft 456 kts 139°
2026-05-04 20:12 50.70016 8.01094 34989 ft 454 kts 139°
2026-05-04 20:12 50.65625 8.08258 35000 ft 455 kts 139°
2026-05-04 20:13 50.61214 8.15437 34995 ft 456 kts 139°
2026-05-04 20:13 50.56804 8.22594 35004 ft 456 kts 139°
2026-05-04 20:14 50.52385 8.29748 34992 ft 456 kts 139°
2026-05-04 20:14 50.47957 8.36895 34987 ft 456 kts 139°
2026-05-04 20:15 50.43524 8.44033 34982 ft 456 kts 139°
2026-05-04 20:15 50.39121 8.51101 34982 ft 456 kts 139°
2026-05-04 20:16 50.35147 8.57565 34983 ft 457 kts 138°
2026-05-04 20:16 50.30824 8.64831 34989 ft 457 kts 137°
2026-05-04 20:17 50.26488 8.72132 34983 ft 457 kts 137°
2026-05-04 20:17 50.22147 8.79390 34984 ft 457 kts 137°
2026-05-04 20:18 50.18504 8.85449 34984 ft 457 kts 138°
2026-05-04 20:18 50.14146 8.92673 34981 ft 457 kts 138°
2026-05-04 20:19 50.09807 8.99845 34982 ft 457 kts 138°
2026-05-04 20:19 50.05438 9.07046 34982 ft 458 kts 138°
2026-05-04 20:20 50.01057 9.14247 34980 ft 458 kts 138°
2026-05-04 20:20 49.96673 9.21433 34980 ft 458 kts 138°
2026-05-04 20:21 49.92281 9.28614 34978 ft 458 kts 138°
2026-05-04 20:21 49.85687 9.39353 34981 ft 458 kts 138°
2026-05-04 20:22 49.81281 9.46506 34979 ft 458 kts 138°
2026-05-04 20:22 49.76875 9.53636 34983 ft 458 kts 138°
2026-05-04 20:23 49.72458 9.60765 34975 ft 458 kts 138°
2026-05-04 20:23 49.68045 9.67867 34982 ft 458 kts 138°
2026-05-04 20:24 49.63627 9.74958 34978 ft 458 kts 138°
2026-05-04 20:24 49.59229 9.81997 34987 ft 458 kts 138°
2026-05-04 20:25 49.54801 9.89063 34987 ft 458 kts 138°
2026-05-04 20:25 49.50368 9.96119 34998 ft 458 kts 138°
2026-05-04 20:26 49.45933 10.03159 34986 ft 459 kts 138°
2026-05-04 20:26 49.41489 10.10194 34990 ft 459 kts 138°
2026-05-04 20:27 49.37034 10.17227 34988 ft 459 kts 138°
2026-05-04 20:27 49.32582 10.24236 34966 ft 459 kts 138°
2026-05-04 20:28 49.28122 10.31241 34973 ft 459 kts 138°
2026-05-04 20:28 49.23618 10.38061 34973 ft 456 kts 144°
2026-05-04 20:29 49.18347 10.43299 34989 ft 451 kts 153°
2026-05-04 20:29 49.12876 10.48146 34982 ft 452 kts 153°
2026-05-04 20:30 49.07455 10.53010 34984 ft 453 kts 153°
2026-05-04 20:30 49.02072 10.57884 34990 ft 453 kts 152°
2026-05-04 20:31 48.96601 10.62836 34992 ft 453 kts 152°
2026-05-04 20:31 48.91227 10.67685 34980 ft 453 kts 152°
2026-05-04 20:32 48.85796 10.72572 34983 ft 453 kts 152°
2026-05-04 20:32 48.80527 10.77862 34963 ft 457 kts 142°
2026-05-04 20:33 48.76131 10.84897 34960 ft 461 kts 135°
2026-05-04 20:33 48.71890 10.92162 34946 ft 460 kts 135°
2026-05-04 20:34 48.67620 10.99383 34942 ft 460 kts 135°
2026-05-04 20:34 48.63327 11.06558 34939 ft 460 kts 135°
2026-05-04 20:35 48.59026 11.13708 34938 ft 460 kts 135°
2026-05-04 20:35 48.54718 11.20850 34940 ft 459 kts 135°
2026-05-04 20:36 48.50413 11.27972 34939 ft 459 kts 135°
2026-05-04 20:36 48.46129 11.35040 34941 ft 459 kts 135°
2026-05-04 20:37 48.41813 11.42142 34940 ft 459 kts 135°
2026-05-04 20:37 48.37494 11.49231 34939 ft 459 kts 135°
2026-05-04 20:38 48.33169 11.56311 34939 ft 460 kts 135°
2026-05-04 20:38 48.28840 11.63380 34937 ft 460 kts 135°
2026-05-04 20:39 48.24419 11.70308 34938 ft 459 kts 139°
2026-05-04 20:39 48.19725 11.76759 34937 ft 458 kts 141°
2026-05-04 20:40 48.14971 11.83152 34935 ft 459 kts 140°
2026-05-04 20:40 48.10237 11.89576 34928 ft 459 kts 140°
2026-05-04 20:41 48.05511 11.96025 34922 ft 460 kts 140°
2026-05-04 20:41 48.00781 12.02474 34918 ft 460 kts 140°
2026-05-04 20:42 47.96044 12.08913 34917 ft 461 kts 140°
2026-05-04 20:42 47.91298 12.15347 34915 ft 461 kts 140°
2026-05-04 20:43 47.86573 12.21735 34914 ft 461 kts 140°
2026-05-04 20:43 47.81815 12.28150 34912 ft 461 kts 140°
2026-05-04 20:44 47.77050 12.34560 34913 ft 462 kts 141°
2026-05-04 20:44 47.72280 12.40959 34920 ft 462 kts 141°
2026-05-04 20:45 47.67506 12.47350 34917 ft 462 kts 141°
2026-05-04 20:45 47.62732 12.53734 34919 ft 462 kts 139°
2026-05-04 20:46 47.58255 12.60616 34930 ft 464 kts 135°
2026-05-04 20:46 47.53918 12.67700 34920 ft 464 kts 135°
2026-05-04 20:47 47.49576 12.74751 34944 ft 464 kts 135°
2026-05-04 20:47 47.45199 12.81763 34944 ft 464 kts 135°
2026-05-04 20:48 47.40804 12.88755 34952 ft 465 kts 135°
2026-05-04 20:48 47.36400 12.95739 34967 ft 465 kts 135°
2026-05-04 20:49 47.31993 13.02711 34982 ft 464 kts 136°
2026-05-04 20:49 47.27582 13.09672 34983 ft 465 kts 135°
2026-05-04 20:50 47.23148 13.16652 34984 ft 466 kts 135°
2026-05-04 20:50 47.18720 13.23603 35010 ft 467 kts 135°
2026-05-04 20:51 47.14276 13.30564 35009 ft 467 kts 136°
2026-05-04 20:51 47.09824 13.37517 35013 ft 467 kts 136°
2026-05-04 20:52 47.05372 13.44452 35034 ft 467 kts 136°
2026-05-04 20:52 47.00909 13.51387 35035 ft 468 kts 136°
2026-05-04 20:53 46.96435 13.58320 35042 ft 468 kts 136°
2026-05-04 20:53 46.91953 13.65247 35045 ft 469 kts 136°
2026-05-04 20:54 46.87464 13.72169 35041 ft 469 kts 136°
2026-05-04 20:54 46.82967 13.79083 35045 ft 469 kts 136°
2026-05-04 20:55 46.78461 13.85994 35038 ft 469 kts 136°
2026-05-04 20:55 46.73992 13.92831 35044 ft 469 kts 136°
2026-05-04 20:56 46.69486 13.99707 35048 ft 469 kts 136°
2026-05-04 20:56 46.64970 14.06582 35048 ft 470 kts 136°
2026-05-04 20:57 46.60445 14.13454 35047 ft 470 kts 136°
2026-05-04 20:57 46.55903 14.20300 35047 ft 470 kts 136°
2026-05-04 20:58 46.51341 14.27102 35044 ft 470 kts 136°
2026-05-04 20:58 46.46777 14.33889 35044 ft 470 kts 136°
2026-05-04 20:59 46.42207 14.40677 35071 ft 471 kts 136°
2026-05-04 20:59 46.37627 14.47466 35063 ft 471 kts 136°
2026-05-04 21:00 46.33032 14.54261 35070 ft 472 kts 136°
2026-05-04 21:00 46.28435 14.61043 35078 ft 471 kts 136°
2026-05-04 21:01 46.23838 14.67806 35075 ft 473 kts 136°
2026-05-04 21:01 46.20003 14.73434 35070 ft 473 kts 136°
2026-05-04 21:02 46.15378 14.80209 35072 ft 474 kts 136°
2026-05-04 21:02 46.10746 14.86974 35069 ft 474 kts 136°
2026-05-04 21:03 46.06104 14.93738 35060 ft 475 kts 136°
2026-05-04 21:03 46.01461 15.00486 35068 ft 474 kts 136°
2026-05-04 21:04 45.96817 15.07219 35073 ft 474 kts 137°
2026-05-04 21:04 45.92160 15.13953 35059 ft 475 kts 137°
2026-05-04 21:05 45.87497 15.20679 35057 ft 475 kts 137°
2026-05-04 21:05 45.82858 15.27357 35058 ft 475 kts 137°
2026-05-04 21:06 45.78181 15.34065 35057 ft 476 kts 137°
2026-05-04 21:06 45.73035 15.39940 35052 ft 473 kts 147°
2026-05-04 21:07 45.67649 15.45347 35055 ft 473 kts 147°
2026-05-04 21:07 45.62264 15.50753 35053 ft 473 kts 147°
2026-05-04 21:08 45.56891 15.56203 35060 ft 474 kts 146°
2026-05-04 21:08 45.51518 15.61671 35065 ft 474 kts 146°
2026-05-04 21:09 45.46144 15.67132 35065 ft 475 kts 146°
2026-05-04 21:09 45.40758 15.72589 35060 ft 475 kts 146°
2026-05-04 21:10 45.35365 15.78039 35067 ft 476 kts 146°
2026-05-04 21:10 45.29970 15.83478 35062 ft 476 kts 146°
2026-05-04 21:11 45.24604 15.88875 35080 ft 476 kts 146°
2026-05-04 21:11 45.19190 15.94306 35082 ft 476 kts 146°
2026-05-04 21:12 45.13777 15.99724 35072 ft 477 kts 146°
2026-05-04 21:12 45.08354 16.05139 35086 ft 477 kts 146°
2026-05-04 21:13 45.02923 16.10550 35086 ft 477 kts 146°
2026-05-04 21:13 44.97490 16.15949 35074 ft 478 kts 147°
2026-05-04 21:14 44.92053 16.21340 35093 ft 478 kts 147°
2026-05-04 21:14 44.86605 16.26728 35094 ft 478 kts 147°
2026-05-04 21:15 44.81154 16.32107 35093 ft 479 kts 147°
2026-05-04 21:15 44.75730 16.37448 35106 ft 479 kts 147°
2026-05-04 21:16 44.70274 16.42806 35100 ft 479 kts 147°
2026-05-04 21:16 44.64802 16.48169 35107 ft 480 kts 147°
2026-05-04 21:17 44.59325 16.53523 35113 ft 480 kts 147°
2026-05-04 21:17 44.53835 16.58878 35120 ft 480 kts 147°
2026-05-04 21:18 44.48341 16.64224 35121 ft 481 kts 147°
2026-05-04 21:18 44.42843 16.69562 35130 ft 481 kts 147°
2026-05-04 21:19 44.37333 16.74901 35127 ft 482 kts 147°
2026-05-04 21:19 44.31811 16.80238 35132 ft 482 kts 147°
2026-05-04 21:20 44.26489 16.85959 35135 ft 484 kts 141°
2026-05-04 21:20 44.21360 16.92038 35132 ft 484 kts 140°
2026-05-04 21:21 44.16231 16.98138 35135 ft 485 kts 141°
2026-05-04 21:21 44.11107 17.04156 35141 ft 485 kts 141°
2026-05-04 21:22 44.05937 17.10177 35135 ft 485 kts 141°
2026-05-04 21:22 44.00752 17.16190 35144 ft 485 kts 141°
2026-05-04 21:23 43.95566 17.22192 35141 ft 485 kts 141°
2026-05-04 21:23 43.90374 17.28189 35144 ft 486 kts 141°
2026-05-04 21:24 43.85176 17.34180 35143 ft 486 kts 141°
2026-05-04 21:24 43.79975 17.40161 35143 ft 487 kts 141°
2026-05-04 21:25 43.74762 17.46142 35136 ft 487 kts 141°
2026-05-04 21:25 43.69547 17.52110 35140 ft 487 kts 141°
2026-05-04 21:26 43.64325 17.58073 35138 ft 487 kts 141°
2026-05-04 21:26 43.59094 17.64032 35131 ft 488 kts 141°
2026-05-04 21:27 43.53856 17.69984 35125 ft 488 kts 141°
2026-05-04 21:27 43.48619 17.75923 35138 ft 488 kts 141°
2026-05-04 21:28 43.43362 17.81869 35125 ft 489 kts 141°
2026-05-04 21:28 43.38104 17.87803 35133 ft 489 kts 141°
2026-05-04 21:29 43.32829 17.93744 35129 ft 490 kts 141°
2026-05-04 21:29 43.27579 17.99641 35132 ft 491 kts 141°
2026-05-04 21:30 43.22290 18.05569 35137 ft 491 kts 141°
2026-05-04 21:30 43.16992 18.11494 35145 ft 492 kts 141°
2026-05-04 21:31 43.09033 18.20368 35150 ft 492 kts 141°
2026-05-04 21:32 43.03715 18.26280 35158 ft 493 kts 141°
2026-05-04 21:32 42.98392 18.32185 35159 ft 493 kts 141°
2026-05-04 21:33 42.93059 18.38086 35154 ft 493 kts 141°
2026-05-04 21:33 42.87724 18.43977 35159 ft 494 kts 141°
2026-05-04 21:34 42.82379 18.49865 35153 ft 494 kts 141°
2026-05-04 21:34 42.77019 18.55756 35146 ft 495 kts 141°
2026-05-04 21:35 42.71658 18.61635 35148 ft 495 kts 141°
2026-05-04 21:35 42.66293 18.67504 35139 ft 495 kts 141°
2026-05-04 21:36 42.60962 18.73324 35140 ft 495 kts 141°
2026-05-04 21:36 42.55587 18.79176 35133 ft 496 kts 141°
2026-05-04 21:37 42.50198 18.85032 35134 ft 496 kts 141°
2026-05-04 21:37 42.44809 18.90875 35126 ft 496 kts 141°
2026-05-04 21:38 42.39418 18.96706 35121 ft 496 kts 141°
2026-05-04 21:38 42.34010 19.02542 35157 ft 497 kts 141°
2026-05-04 21:39 42.28606 19.08361 35154 ft 497 kts 141°
2026-05-04 21:39 42.23198 19.14172 35153 ft 497 kts 141°
2026-05-04 21:40 42.17780 19.19980 35142 ft 497 kts 141°
2026-05-04 21:40 42.12394 19.25740 35151 ft 497 kts 141°
2026-05-04 21:41 42.06965 19.31533 35131 ft 498 kts 141°
2026-05-04 21:41 42.01532 19.37318 35128 ft 498 kts 141°
2026-05-04 21:42 41.96102 19.43087 35146 ft 498 kts 141°
2026-05-04 21:42 41.90667 19.48848 35131 ft 498 kts 141°
2026-05-04 21:43 41.85223 19.54605 35147 ft 498 kts 141°
2026-05-04 21:43 41.79772 19.60357 35144 ft 499 kts 141°
2026-05-04 21:44 41.74318 19.66100 35145 ft 499 kts 141°
2026-05-04 21:44 41.68858 19.71836 35162 ft 499 kts 141°
2026-05-04 21:45 41.63388 19.77570 35161 ft 500 kts 141°
2026-05-04 21:45 41.57913 19.83296 35168 ft 500 kts 141°
2026-05-04 21:46 41.52427 19.89021 35160 ft 500 kts 141°
2026-05-04 21:46 41.46976 19.94698 35165 ft 501 kts 141°
2026-05-04 21:47 41.41477 20.00411 35164 ft 501 kts 141°
2026-05-04 21:47 41.35972 20.06118 35160 ft 501 kts 141°
2026-05-04 21:48 41.30464 20.11816 35177 ft 502 kts 141°
2026-05-04 21:48 41.24952 20.17506 35168 ft 502 kts 141°
2026-05-04 21:49 41.19433 20.23190 35173 ft 502 kts 141°
2026-05-04 21:49 41.13917 20.28859 35185 ft 502 kts 141°
2026-05-04 21:50 41.08392 20.34524 35176 ft 502 kts 141°
2026-05-04 21:50 41.02863 20.40181 35176 ft 502 kts 141°
2026-05-04 21:51 40.97333 20.45827 35187 ft 502 kts 141°
2026-05-04 21:51 40.92733 20.50515 35179 ft 502 kts 142°
2026-05-04 21:52 40.87190 20.56151 35186 ft 503 kts 142°
2026-05-04 21:52 40.81641 20.61781 35183 ft 503 kts 142°
2026-05-04 21:53 40.76092 20.67401 35179 ft 503 kts 142°
2026-05-04 21:53 40.70537 20.73013 35191 ft 503 kts 142°
2026-05-04 21:54 40.64976 20.78620 35194 ft 503 kts 142°
2026-05-04 21:54 40.59406 20.84224 35199 ft 504 kts 142°
2026-05-04 21:55 40.53835 20.89819 35197 ft 504 kts 142°
2026-05-04 21:55 40.48262 20.95407 35200 ft 504 kts 141°
2026-05-04 21:56 40.42952 21.01305 35202 ft 504 kts 137°
2026-05-04 21:56 40.37729 21.07439 35198 ft 503 kts 137°
2026-05-04 21:57 40.32493 21.13545 35198 ft 504 kts 137°
2026-05-04 21:57 40.27227 21.19605 35189 ft 504 kts 137°
2026-05-04 21:58 40.21951 21.25643 35188 ft 504 kts 137°
2026-05-04 21:58 40.16672 21.31674 35181 ft 504 kts 137°
2026-05-04 21:59 40.11389 21.37700 35182 ft 504 kts 138°
2026-05-04 21:59 40.06100 21.43722 35183 ft 504 kts 138°
2026-05-04 22:00 40.00810 21.49733 35181 ft 505 kts 138°
2026-05-04 22:00 39.95509 21.55742 35177 ft 505 kts 138°
2026-05-04 22:01 39.90204 21.61736 35169 ft 505 kts 138°
2026-05-04 22:01 39.84897 21.67718 35169 ft 505 kts 138°
2026-05-04 22:02 39.79582 21.73700 35159 ft 506 kts 138°
2026-05-04 22:02 39.74291 21.79645 35152 ft 506 kts 138°
2026-05-04 22:03 39.68959 21.85622 35156 ft 506 kts 138°
2026-05-04 22:03 39.63619 21.91596 35151 ft 507 kts 138°
2026-05-04 22:04 39.58269 21.97568 35142 ft 507 kts 138°
2026-05-04 22:04 39.52921 22.03526 35151 ft 507 kts 138°
2026-05-04 22:05 39.47559 22.09486 35138 ft 508 kts 138°
2026-05-04 22:05 39.42193 22.15438 35145 ft 508 kts 138°
2026-05-04 22:06 39.36849 22.21354 35150 ft 509 kts 138°
2026-05-04 22:06 39.31432 22.27337 35148 ft 509 kts 138°
2026-05-04 22:07 39.26043 22.33278 35152 ft 510 kts 138°
2026-05-04 22:07 39.20646 22.39214 35153 ft 510 kts 138°
2026-05-04 22:08 39.15279 22.45105 35146 ft 510 kts 138°
2026-05-04 22:08 39.09871 22.51028 35145 ft 509 kts 138°
2026-05-04 22:09 39.04500 22.56898 35136 ft 504 kts 138°
2026-05-04 22:09 38.99169 22.62714 34859 ft 505 kts 138°
2026-05-04 22:09 38.96485 22.65638 34216 ft 506 kts 138°
2026-05-04 22:10 38.93797 22.68564 33488 ft 506 kts 138°
2026-05-04 22:10 38.91109 22.71485 32737 ft 506 kts 138°
2026-05-04 22:10 38.88426 22.74399 32001 ft 505 kts 139°
2026-05-04 22:10 38.85744 22.77309 31254 ft 504 kts 139°
2026-05-04 22:11 38.83072 22.80204 30567 ft 501 kts 139°
2026-05-04 22:11 38.80418 22.83076 29643 ft 499 kts 139°
2026-05-04 22:11 38.77773 22.85937 28671 ft 496 kts 139°
2026-05-04 22:11 38.75144 22.88776 27800 ft 494 kts 139°
2026-05-04 22:12 38.72524 22.91603 26903 ft 491 kts 139°
2026-05-04 22:12 38.69916 22.94415 25989 ft 490 kts 139°
2026-05-04 22:12 38.67327 22.97203 25381 ft 482 kts 139°
2026-05-04 22:12 38.64775 22.99950 24698 ft 477 kts 139°
2026-05-04 22:13 38.62247 23.02667 24051 ft 471 kts 139°
2026-05-04 22:13 38.59750 23.05349 23335 ft 466 kts 139°
2026-05-04 22:13 38.57281 23.07998 22630 ft 460 kts 139°
2026-05-04 22:13 38.54882 23.10570 21997 ft 453 kts 139°
2026-05-04 22:14 38.52485 23.13137 21355 ft 447 kts 139°
2026-05-04 22:14 38.50111 23.15677 20716 ft 442 kts 139°
2026-05-04 22:14 38.47768 23.18183 20070 ft 438 kts 139°
2026-05-04 22:14 38.45444 23.20666 19455 ft 433 kts 139°
2026-05-04 22:15 38.43144 23.23122 18841 ft 430 kts 139°
2026-05-04 22:15 38.40861 23.25556 18188 ft 426 kts 139°
2026-05-04 22:15 38.38592 23.27975 17504 ft 423 kts 139°
2026-05-04 22:15 38.36344 23.30368 16891 ft 419 kts 139°
2026-05-04 22:16 38.34120 23.32734 16255 ft 415 kts 139°
2026-05-04 22:16 38.31912 23.35082 15639 ft 412 kts 139°
2026-05-04 22:16 38.29719 23.37411 15013 ft 409 kts 139°
2026-05-04 22:16 38.27527 23.39738 14316 ft 409 kts 139°
2026-05-04 22:17 38.25348 23.42049 13695 ft 407 kts 139°
2026-05-04 22:17 38.23179 23.44348 13037 ft 404 kts 139°
2026-05-04 22:17 38.21026 23.46627 12418 ft 401 kts 139°
2026-05-04 22:17 38.18839 23.48801 11799 ft 399 kts 147°
2026-05-04 22:18 38.16269 23.50096 11268 ft 397 kts 168°
2026-05-04 22:18 38.13555 23.50311 11032 ft 388 kts 186°
2026-05-04 22:18 38.10914 23.49806 10790 ft 380 kts 190°
2026-05-04 22:18 38.08363 23.49229 10548 ft 374 kts 191°
2026-05-04 22:19 38.05833 23.48657 10296 ft 364 kts 191°
2026-05-04 22:19 38.03364 23.48121 10049 ft 356 kts 190°
2026-05-04 22:19 38.00943 23.47615 9777 ft 348 kts 190°
2026-05-04 22:19 37.98596 23.47133 9678 ft 336 kts 190°
2026-05-04 22:20 37.96331 23.46669 9593 ft 324 kts 190°
2026-05-04 22:20 37.94143 23.46222 9505 ft 313 kts 190°
2026-05-04 22:20 37.92005 23.45784 9237 ft 309 kts 189°
2026-05-04 22:20 37.89903 23.45353 9110 ft 301 kts 190°
2026-05-04 22:21 37.87868 23.44936 8977 ft 292 kts 189°
2026-05-04 22:21 37.85882 23.44529 8802 ft 287 kts 189°
2026-05-04 22:21 37.83919 23.44128 8531 ft 285 kts 189°
2026-05-04 22:21 37.81967 23.43728 8267 ft 283 kts 189°
2026-05-04 22:22 37.80015 23.43475 7981 ft 281 kts 174°
2026-05-04 22:22 37.78189 23.44220 7748 ft 273 kts 144°
2026-05-04 22:22 37.76872 23.45867 7492 ft 264 kts 117°
2026-05-04 22:22 37.76197 23.47930 7385 ft 248 kts 96°
2026-05-04 22:23 37.75989 23.50047 7294 ft 239 kts 91°
2026-05-04 22:23 37.75834 23.52106 7191 ft 231 kts 91°
2026-05-04 22:23 37.75687 23.54072 7060 ft 221 kts 90°
2026-05-04 22:23 37.75544 23.55988 6815 ft 216 kts 90°
2026-05-04 22:24 37.75399 23.57852 6595 ft 210 kts 90°
2026-05-04 22:24 37.75260 23.59600 6394 ft 205 kts 90°
2026-05-04 22:24 37.75116 23.61404 6180 ft 203 kts 90°
2026-05-04 22:24 37.75073 23.63176 5882 ft 202 kts 71°
2026-05-04 22:25 37.75540 23.64786 5680 ft 191 kts 64°
2026-05-04 22:25 37.75988 23.66325 5443 ft 186 kts 65°
2026-05-04 22:25 37.76416 23.67847 5211 ft 181 kts 66°
2026-05-04 22:25 37.76826 23.69328 4980 ft 176 kts 66°
2026-05-04 22:26 37.77227 23.70785 4755 ft 174 kts 66°
2026-05-04 22:26 37.77622 23.72232 4585 ft 174 kts 66°
2026-05-04 22:26 37.78015 23.73682 4411 ft 174 kts 66°
2026-05-04 22:26 37.78405 23.75127 4254 ft 173 kts 66°
2026-05-04 22:27 37.78792 23.76565 4101 ft 173 kts 66°
2026-05-04 22:27 37.79176 23.78001 3945 ft 173 kts 66°
2026-05-04 22:27 37.79564 23.79449 3761 ft 175 kts 66°
2026-05-04 22:27 37.79956 23.80912 3583 ft 177 kts 66°
2026-05-04 22:28 37.80386 23.82372 3346 ft 177 kts 55°
2026-05-04 22:28 37.81238 23.83403 3131 ft 168 kts 36°
2026-05-04 22:28 37.82082 23.84437 2901 ft 168 kts 40°
2026-05-04 22:28 37.82978 23.85389 2668 ft 168 kts 34°
2026-05-04 22:29 37.83912 23.86287 2446 ft 169 kts 34°
2026-05-04 22:29 37.84856 23.87186 2208 ft 170 kts 34°
2026-05-04 22:29 37.85801 23.88086 1981 ft 170 kts 34°
2026-05-04 22:29 37.86735 23.88979 1751 ft 164 kts 34°
2026-05-04 22:30 37.87616 23.89819 1552 ft 154 kts 33°
2026-05-04 22:30 37.88467 23.90631 1313 ft 153 kts 34°
2026-05-04 22:30 37.89295 23.91437 1125 ft 147 kts 36°
2026-05-04 22:30 37.90133 23.92225 892 ft 152 kts 33°
2026-05-04 22:31 37.90988 23.93031 711 ft 154 kts 34°
2026-05-04 22:31 37.91847 23.93846 534 ft 156 kts 35°
2026-05-04 22:31 37.92720 23.94677 326 ft 157 kts 35°
2026-05-04 22:31 37.93521 23.95442 283 ft 125 kts 36°
2026-05-04 22:32 37.94102 23.95991 283 ft 83 kts 36°
2026-05-04 22:32 37.94408 23.96260 287 ft 38 kts 25°
2026-05-04 22:32 37.94617 23.96323 296 ft 18 kts 358°
2026-05-04 22:32 37.94625 23.96205 300 ft 18 kts 219°
2026-05-04 22:33 37.94614 23.96094 300 ft 14 kts 292°
2026-05-04 22:33 37.94560 23.96002 300 ft 15 kts 214°
2026-05-04 22:33 37.94478 23.95921 303 ft 15 kts 218°
2026-05-04 22:33 37.94388 23.95839 300 ft 17 kts 217°
2026-05-04 22:34 37.94295 23.95751 299 ft 17 kts 218°
2026-05-04 22:34 37.94202 23.95662 301 ft 17 kts 218°
2026-05-04 22:34 37.94111 23.95576 300 ft 16 kts 216°
2026-05-04 22:34 37.94023 23.95493 300 ft 16 kts 217°
2026-05-04 22:35 37.93936 23.95410 300 ft 16 kts 217°
2026-05-04 22:35 37.93882 23.95295 300 ft 15 kts 250°
2026-05-04 22:35 37.93839 23.95178 301 ft 12 kts 248°
2026-05-04 22:35 37.93854 23.95110 300 ft 7 kts 307°
2026-05-04 22:36 37.93868 23.95087 300 ft 1 kts 308°
2026-05-04 22:36 37.93870 23.95084 300 ft 0 kts 308°